This is the latest recevied weather packets stored in our database for station/object KD4MBW. If no packets are shown the sender has not sent any weather packets the latest 10 day(s).
| Time | Temp. | Humidity | Pressure | Rain* | Wind** | Luminosity | Snow |
|---|---|---|---|---|---|---|---|
| 1787685620 | 31.67° C | 71% | 1015.3 hPa | 0 mm | - | 676 W/m² | - |
| 1787685319 | 31.67° C | 73% | 1015.4 hPa | 0 mm | - | 694 W/m² | - |
| 1787685014 | 31.67° C | 72% | 1015.5 hPa | 0 mm | - | 699 W/m² | - |
| 1787684710 | 31.67° C | 71% | 1015.3 hPa | 0 mm | - | 721 W/m² | - |
| 1787684409 | 31.67° C | 72% | 1015.3 hPa | 0 mm | - | 755 W/m² | - |
| 1787684105 | 32.22° C | 72% | 1015.6 hPa | 0 mm | - | 741 W/m² | - |
| 1787683803 | 32.22° C | 70% | 1015.7 hPa | 0 mm | - | 771 W/m² | - |
| 1787683499 | 32.22° C | 72% | 1015.6 hPa | 0 mm | - | 791 W/m² | - |
| 1787683195 | 32.22° C | 72% | 1015.7 hPa | 0 mm | - | 825 W/m² | - |
| 1787682891 | 32.22° C | 71% | 1015.8 hPa | 0 mm | - | 845 W/m² | - |
| 1787682587 | 32.78° C | 71% | 1015.9 hPa | 0 mm | - | 447 W/m² | - |
| 1787682283 | 32.22° C | 70% | 1016.1 hPa | 0 mm | - | 678 W/m² | - |
| 1787681978 | 33.33° C | 66% | 1016 hPa | 0 mm | - | 829 W/m² | - |
| 1787681673 | 32.78° C | 67% | 1016 hPa | 0 mm | - | 778 W/m² | - |
| 1787681367 | 32.78° C | 66% | 1016.3 hPa | 0 mm | - | 777 W/m² | - |
| 1787681063 | 32.22° C | 67% | 1016.3 hPa | 0 mm | - | 770 W/m² | - |
| 1787680762 | 32.22° C | 66% | 1016.2 hPa | 0 mm | - | 762 W/m² | - |
| 1787680458 | 32.22° C | 66% | 1016.4 hPa | 0 mm | - | 765 W/m² | - |
| 1787680155 | 32.22° C | 69% | 1016.1 hPa | 0 mm | - | 765 W/m² | - |
| 1787679851 | 32.78° C | 68% | 1016.2 hPa | 0 mm | - | 767 W/m² | - |
| 1787679549 | 32.78° C | 68% | 1016.2 hPa | 0 mm | - | 765 W/m² | - |
| 1787679241 | 32.22° C | 68% | 1016.4 hPa | 0 mm | - | 769 W/m² | - |
| 1787678936 | 32.22° C | 65% | 1016.5 hPa | 0 mm | - | 768 W/m² | - |
| 1787678635 | 31.67° C | 68% | 1016.4 hPa | 0 mm | - | 765 W/m² | - |
| 1787678330 | 31.67° C | 68% | 1016.6 hPa | 0 mm | - | 766 W/m² | - |
* Rain latest hour (hover to see other rain measurements)
** Current wind speed in m/s (hover to see current wind gust speed)